Home > Weather > Gitega > Past weeks

Flag for Burundi Past Weather in Gitega, Burundi — Yesterday and Last 2 Weeks

Now
68 °F

Passing clouds.


Feels Like: 68 °F
Forecast: 53 / 76 °F
Wind: 5 mph from Southeast

Location: Kigali Airport

Current Time: Jun 26, 2016 at 10:54:49 PM

Latest Report: Jun 26, 2016 at 10:00 PM


Visibility: N/A

Pressure: 30.24 "Hg (24.86 "Hg at 1679m altitude)

Humidity: 56%

Dew Point: 52 °F

Location of GitegaLocation

Past Weather in Gitega — Graph

°F

Gitega Temperature Yesterday

Maximum temperature yesterday: 75 °F (at 12:30 PM)
Minimum temperature yesterday: 63 °F (at 3:30 AM)
Average temperature yesterday: 68 °F

High & Low Weather Summary for the Past Weeks

 TemperatureHumidityPressure
High82 °F (Jun 14, 2:00 PM)83% (Jun 16, 7:00 AM)30.33 "Hg (Jun 16, 7:00 AM)
Low61 °F (Jun 19, 6:00 AM)36% (Jun 20, 1:30 PM)30.07 "Hg (Jun 20, 4:00 PM)
Average71 °F57%30.19 "Hg
* Reported Jun 13 3:00 PM — Jun 26 9:00 PM, Gitega, Weather by CustomWeather, © 2016

Note: Actual official high and low records may vary slightly from our data, if they occured in-between our weather recording intervals... More about our weather records

Advertising

Gitega Weather History for the Previous 24 Hours

Scroll right to see more
 ConditionsComfort  
Time TempWeatherWind HumidityBarometerVisibility
9:00 PM
Sun, Jun 26
68 °FPassing clouds.2 mph60%30.24 "HgN/A
8:30 PM70 °FPassing clouds.6 mph53%30.21 "HgN/A
7:00 PM72 °FPassing clouds.6 mph50%30.18 "HgN/A
6:00 PM73 °FScattered clouds.7 mph47%30.18 "HgN/A
4:00 PM77 °FBroken clouds.9 mph42%30.15 "HgN/A
3:30 PM77 °FBroken clouds.7 mph42%30.15 "HgN/A
2:30 PM77 °FPartly sunny.8 mph42%30.18 "HgN/A
2:00 PM77 °FScattered clouds.7 mph42%30.18 "HgN/A
1:00 PM77 °FScattered clouds.7 mph42%N/AN/A
12:30 PM75 °FScattered clouds.7 mph44%N/AN/A
12:00 PM75 °FScattered clouds.12 mph44%N/AN/A
11:30 AM75 °FPassing clouds.10 mph44%N/AN/A
10:00 AM73 °FPassing clouds.10 mph47%30.27 "HgN/A
9:30 AM70 °FPassing clouds.8 mph53%30.30 "HgN/A
9:00 AM68 °FPassing clouds.9 mph56%30.27 "HgN/A
8:30 AM66 °FPassing clouds.7 mph60%30.27 "HgN/A
8:00 AM66 °FPassing clouds.3 mph64%30.27 "HgN/A
5:00 AM63 °FPassing clouds.2 mph73%30.21 "HgN/A
4:00 AM64 °FPassing clouds.2 mph68%30.21 "HgN/A
3:30 AM63 °FPassing clouds.2 mph73%30.21 "HgN/A
11:30 PM
Sat, Jun 25
66 °FPassing clouds.No wind60%30.21 "HgN/A
10:00 PM68 °FPassing clouds.2 mph60%30.21 "HgN/A
Weather by CustomWeather, © 2016

See weather overviewHow to use our weather pages